When you browse on this site, cookies collect data to enhance your experience and personalize the content and advertising you see.
Visit our Privacy Policy to learn more. By continuing to use the site, you agree to this use of cookies and data.
  • In Hungary
  • List of Countries
  • For 7 days
  • Water Temperature
  • Satellite Maps
  • Weather Map
  • News
  • Weather Widgets
  • user-avatar
    Login

    Hourly Weather Janowo

    Today, 24 May, Friday

    Time Temperature Precipitation Wind Pressure Humidity
    00:00 +10°C° 0 mm 1 mps 758 mmHg 77%
    01:00 +10°C° 0 mm 1 mps 757 mmHg 79%
    02:00 +10°C° 0 mm 1 mps 757 mmHg 79%
    03:00 +9°C° 0 mm 0 mps 757 mmHg 80%
    04:00 +8°C° 0 mm 0 mps 757 mmHg 81%
    05:00 +10°C° 0 mm 0 mps 757 mmHg 74%
    06:00 +13°C° 0 mm 1 mps 757 mmHg 68%
    07:00 +15°C° 0 mm 1 mps 757 mmHg 59%
    08:00 +18°C° 0 mm 1 mps 756 mmHg 53%
    09:00 +20°C° 0 mm 1 mps 756 mmHg 47%
    10:00 +21°C° 0 mm 1 mps 756 mmHg 41%
    11:00 +22°C° 0 mm 1 mps 756 mmHg 38%
    12:00 +23°C° 0 mm 1 mps 755 mmHg 35%
    13:00 +24°C° 0 mm 1 mps 755 mmHg 32%
    14:00 +24°C° 0 mm 1 mps 754 mmHg 33%
    15:00 +24°C° 0 mm 2 mps 754 mmHg 34%
    16:00 +24°C° 0 mm 2 mps 754 mmHg 35%
    17:00 +23°C° 0 mm 2 mps 753 mmHg 42%
    18:00 +22°C° 0 mm 1 mps 753 mmHg 50%
    19:00 +20°C° 0 mm 1 mps 753 mmHg 58%
    20:00 +19°C° 0 mm 1 mps 753 mmHg 61%
    21:00 +18°C° 0 mm 1 mps 753 mmHg 65%
    22:00 +15°C° 0 mm 2 mps 753 mmHg 68%
    23:00 +15°C° 0 mm 2 mps 753 mmHg 71%

    Tomorrow, 25 May, Saturday

    Time Temperature Precipitation Wind Pressure Humidity
    00:00 +14°C° 0 mm 2 mps 753 mmHg 74%
    01:00 +14°C° 0 mm 2 mps 753 mmHg 77%
    02:00 +13°C° 0 mm 2 mps 753 mmHg 82%
    03:00 +13°C° 0 mm 2 mps 753 mmHg 87%
    04:00 +12°C° 0 mm 2 mps 753 mmHg 92%
    05:00 +13°C° 0 mm 2 mps 754 mmHg 86%
    06:00 +13°C° 0 mm 3 mps 754 mmHg 80%
    07:00 +14°C° 0 mm 3 mps 754 mmHg 74%
    08:00 +16°C° 0 mm 3 mps 754 mmHg 68%
    09:00 +17°C° 0 mm 4 mps 754 mmHg 62%
    10:00 +18°C° 0 mm 4 mps 755 mmHg 56%
    11:00 +19°C° 0 mm 4 mps 755 mmHg 54%
    12:00 +20°C° 0 mm 4 mps 755 mmHg 53%
    13:00 +20°C° 0 mm 4 mps 755 mmHg 51%
    14:00 +20°C° 0 mm 4 mps 754 mmHg 51%
    15:00 +20°C° 0 mm 4 mps 754 mmHg 51%
    16:00 +20°C° 0 mm 4 mps 754 mmHg 51%
    17:00 +19°C° 0 mm 4 mps 754 mmHg 56%
    18:00 +18°C° 0 mm 3 mps 754 mmHg 60%
    19:00 +17°C° 0 mm 3 mps 754 mmHg 65%
    20:00 +15°C° 0 mm 2 mps 754 mmHg 73%
    21:00 +13°C° 0 mm 2 mps 755 mmHg 80%
    22:00 +11°C° 0 mm 1 mps 755 mmHg 88%
    23:00 +11°C° 0 mm 1 mps 755 mmHg 89%

    Day after tomorrow, 26 May, Sunday

    Time Temperature Precipitation Wind Pressure Humidity
    00:00 +11°C° 0 mm 1 mps 755 mmHg 90%
    01:00 +11°C° 0 mm 1 mps 755 mmHg 91%
    02:00 +9°C° 0 mm 2 mps 755 mmHg 91%
    03:00 +9°C° 0 mm 2 mps 755 mmHg 92%
    04:00 +9°C° 0 mm 2 mps 754 mmHg 92%
    05:00 +10°C° 0 mm 2 mps 754 mmHg 87%
    06:00 +12°C° 0 mm 3 mps 754 mmHg 81%
    07:00 +13°C° 0 mm 3 mps 754 mmHg 76%
    08:00 +16°C° 0 mm 3 mps 754 mmHg 69%
    09:00 +17°C° 0 mm 4 mps 754 mmHg 62%
    10:00 +17°C° 0 mm 5 mps 754 mmHg 55%
    11:00 +19°C° 0 mm 5 mps 754 mmHg 52%
    12:00 +20°C° 0 mm 5 mps 753 mmHg 48%
    13:00 +21°C° 0 mm 6 mps 753 mmHg 44%
    14:00 +21°C° 0 mm 6 mps 753 mmHg 46%
    15:00 +21°C° 0 mm 6 mps 753 mmHg 47%
    16:00 +21°C° 0 mm 6 mps 752 mmHg 48%
    17:00 +20°C° 0 mm 5 mps 752 mmHg 53%
    18:00 +19°C° 0 mm 4 mps 752 mmHg 59%
    19:00 +18°C° 0 mm 3 mps 752 mmHg 64%
    20:00 +17°C° 0 mm 3 mps 752 mmHg 70%
    21:00 +15°C° 0 mm 2 mps 752 mmHg 76%
    22:00 +14°C° 0 mm 2 mps 753 mmHg 81%
    23:00 +14°C° 0 mm 2 mps 752 mmHg 80%

    27 May, Monday

    Time Temperature Precipitation Wind Pressure Humidity
    00:00 +14°C° 0 mm 3 mps 752 mmHg 79%
    01:00 +14°C° 0 mm 3 mps 752 mmHg 78%
    02:00 +14°C° 0 mm 3 mps 752 mmHg 78%
    03:00 +14°C° 0 mm 3 mps 751 mmHg 78%
    04:00 +15°C° 0 mm 4 mps 751 mmHg 77%
    05:00 +15°C° 0 mm 4 mps 751 mmHg 75%
    06:00 +16°C° 0 mm 5 mps 751 mmHg 73%
    07:00 +17°C° 0 mm 5 mps 750 mmHg 71%
    08:00 +19°C° 0.1 mm 5 mps 751 mmHg 70%
    09:00 +19°C° 0.1 mm 5 mps 751 mmHg 70%
    10:00 +20°C° 0.1 mm 5 mps 751 mmHg 70%
    11:00 +20°C° 0.1 mm 5 mps 751 mmHg 68%
    12:00 +20°C° 0.1 mm 5 mps 751 mmHg 66%
    13:00 +21°C° 0.1 mm 5 mps 751 mmHg 64%
    14:00 +21°C° 0 mm 5 mps 751 mmHg 62%
    15:00 +21°C° 0 mm 4 mps 751 mmHg 59%
    16:00 +21°C° 0 mm 4 mps 751 mmHg 56%
    17:00 +20°C° 0 mm 3 mps 751 mmHg 60%
    18:00 +19°C° 0 mm 2 mps 751 mmHg 64%
    19:00 +19°C° 0 mm 2 mps 751 mmHg 68%
    20:00 +18°C° 0 mm 1 mps 751 mmHg 72%
    21:00 +16°C° 0 mm 1 mps 752 mmHg 76%
    22:00 +15°C° 0 mm 1 mps 752 mmHg 79%
    23:00 +14°C° 0 mm 1 mps 752 mmHg 83%

    28 May, Tuesday

    Time Temperature Precipitation Wind Pressure Humidity
    00:00 +14°C° 0 mm 1 mps 752 mmHg 86%
    01:00 +13°C° 0 mm 1 mps 752 mmHg 89%
    02:00 +12°C° 0 mm 1 mps 752 mmHg 91%
    03:00 +12°C° 0 mm 1 mps 751 mmHg 92%
    04:00 +12°C° 0 mm 1 mps 751 mmHg 93%
    05:00 +13°C° 0 mm 1 mps 751 mmHg 87%
    06:00 +15°C° 0 mm 1 mps 751 mmHg 81%
    07:00 +16°C° 0 mm 2 mps 751 mmHg 74%
    08:00 +17°C° 0 mm 2 mps 751 mmHg 68%
    09:00 +19°C° 0 mm 2 mps 751 mmHg 62%
    10:00 +20°C° 0 mm 2 mps 751 mmHg 55%
    11:00 +20°C° 0 mm 2 mps 751 mmHg 56%
    12:00 +20°C° 0 mm 2 mps 750 mmHg 57%
    13:00 +20°C° 0 mm 2 mps 750 mmHg 57%
    14:00 +19°C° 0.2 mm 2 mps 750 mmHg 62%
    15:00 +19°C° 0.2 mm 2 mps 750 mmHg 66%
    16:00 +19°C° 0.2 mm 2 mps 750 mmHg 70%
    17:00 +18°C° 0.1 mm 2 mps 750 mmHg 76%
    18:00 +17°C° 0.1 mm 2 mps 750 mmHg 82%
    19:00 +16°C° 0.1 mm 1 mps 750 mmHg 88%
    20:00 +16°C° 0.1 mm 1 mps 750 mmHg 90%
    21:00 +15°C° 0.1 mm 1 mps 750 mmHg 93%
    22:00 +14°C° 0.1 mm 2 mps 751 mmHg 95%
    23:00 +14°C° 0 mm 2 mps 751 mmHg 96%

    29 May, Wednesday

    Time Temperature Precipitation Wind Pressure Humidity
    00:00 +13°C° 0 mm 2 mps 751 mmHg 97%
    01:00 +13°C° 0 mm 2 mps 751 mmHg 98%
    02:00 +12°C° 0 mm 2 mps 751 mmHg 97%
    03:00 +12°C° 0 mm 2 mps 751 mmHg 97%
    04:00 +12°C° 0 mm 2 mps 751 mmHg 96%
    05:00 +12°C° 0 mm 2 mps 751 mmHg 90%
    06:00 +13°C° 0 mm 2 mps 752 mmHg 84%
    07:00 +13°C° 0 mm 3 mps 752 mmHg 78%
    08:00 +16°C° 0 mm 3 mps 752 mmHg 70%
    09:00 +17°C° 0 mm 3 mps 752 mmHg 62%
    10:00 +18°C° 0 mm 3 mps 753 mmHg 54%
    11:00 +19°C° 0 mm 3 mps 753 mmHg 51%
    12:00 +20°C° 0 mm 3 mps 753 mmHg 48%
    13:00 +21°C° 0 mm 3 mps 754 mmHg 45%
    14:00 +20°C° 0 mm 4 mps 754 mmHg 48%
    15:00 +20°C° 0 mm 4 mps 754 mmHg 51%
    16:00 +19°C° 0 mm 4 mps 755 mmHg 54%
    17:00 +16°C° 0.6 mm 5 mps 755 mmHg 66%
    18:00 +14°C° 0.6 mm 5 mps 756 mmHg 78%
    19:00 +13°C° 0.6 mm 5 mps 756 mmHg 89%
    20:00 +12°C° 0.4 mm 5 mps 757 mmHg 90%
    21:00 +11°C° 0.4 mm 4 mps 757 mmHg 91%
    22:00 +11°C° 0.4 mm 4 mps 758 mmHg 92%
    23:00 +10°C° 0.3 mm 3 mps 758 mmHg 93%
    Show more